Regional Weather Roundup
Issued by NWS Northern Indiana

Home | Current Version | Previous Version | Graphics & Text | Print | Product List | Glossary On
Versions: 1 2 3 4 5 6 7 8 9 10 11 12 13 14 15 16 17 18 19 20 21 22 23 24 25 26 27 28 29 30 31 32 33 34 35 36 37 38 39 40 41 42 43 44 45 46 47 48 49 50
000
ASUS43 KIWX 092010
RWRIWX

KIWX WEATHER ROUNDUP
NATIONAL WEATHER SERVICE NORTHERN INDIANA
300 PM EST FRI DEC 09 2016

NOTE: "FAIR" INDICATES FEW OR NO CLOUDS BELOW 12,000 FEET WITH NO
SIGNIFICANT WEATHER AND/OR OBSTRUCTIONS TO VISIBILITY.

* THESE STATIONS ARE NOT UNDER NWS QUALITY CONTROL. THEY ALSO MAY NOT
  REPORT WEATHER SUCH AS PRECIPITATION OR FOG.

INZ001>027-092100-
NORTHERN INDIANA

CITY           SKY/WX    TMP DP  RH WIND       PRES   REMARKS
GARY*          CLOUDY    28  14  54 W13       30.51S WCI  18
VALPARAISO     CLOUDY    27  14  58 W14       30.49S WCI  16
MICHIGAN CITY* FLURRIES  27  18  69 SW8G16    30.49R WCI  18
LAPORTE*       FLURRIES  25  17  72 W14       30.48S WCI  13
KNOX*          PTSUNNY   27  -6  24 W12       30.49S WCI  16
SOUTH BEND     LGT SNOW  24  20  84 W10       30.47R VSB 1   WCI  14
ELKHART*       LGT SNOW  27  21  80 NW9       30.45R WCI  17
GOSHEN         CLOUDY    27  18  69 W13       30.45R WCI  16
MONTICELLO*    CLOUDY    27  12  53 W10       30.50S WCI  17
LOGANSPORT*    FLURRIES  27  18  69 W9        30.51R WCI  17
ROCHESTER*     CLOUDY    30  18  59 W10G16    30.48R WCI  21
WARSAW*        SUNNY     28  14  54 W13       30.46R WCI  18
ANGOLA*        CLOUDY    28  21  74 W14       30.39S WCI  17
FORT WAYNE     PTSUNNY   29  17  61 W17       30.45S WCI  17
HUNTINGTON*    CLOUDY    28  15  57 W10G16    30.46R WCI  18
PERU/GRISSOM   CLOUDY    27  15  62 W13       30.47R WCI  16
MARION*        CLOUDY    26  18  71 W14       30.49R WCI  15

$$
INZ028>050-092100-
CENTRAL INDIANA

CITY           SKY/WX    TMP DP  RH WIND       PRES   REMARKS
LAFAYETTE      CLOUDY    26  16  65 W10       30.52R WCI  16
KOKOMO*        FLURRIES  26  17  68 W16       30.49S WCI  14
MUNCIE*        CLOUDY    26  17  68 NW10      30.48S WCI  16
INDIANAPOLIS   CLOUDY    26  14  60 W10       30.51R WCI  16

$$
MIZ043>046-050>051-056>058-064>065-071>073-077>080-092100-
SOUTHWEST LOWER MICHIGAN

CITY           SKY/WX    TMP DP  RH WIND       PRES   REMARKS
BATTLE CREEK   CLOUDY    26  19  74 W13       30.39S WCI  15
BENTON HARBOR  CLOUDY    28  14  55 W15G24    30.46R WCI  16
COLDWATER*     CLOUDY    28  22  79 W13G18    30.39R WCI  17
HILLSDALE*     LGT SNOW  27  21  80 NW12G18   30.36R WCI  16
HOLLAND        FLURRIES  27  17  66 W12       30.42S WCI  17
GRAND RAPIDS   CLOUDY    26  19  74 W13       30.39S HAZE    WCI  15
KALAMAZOO      LGT SNOW  27  19  72 NW8       30.41S WCI  19
STURGIS*       CLOUDY    29  20  70 NW10G16   30.40S WCI  20
THREE RIVERS*  FLURRIES  28  21  76 NW10      30.42S WCI  18

$$
OHZ001>008-015>018-024>025-092100-
NORTHWEST OHIO

CITY           SKY/WX    TMP DP  RH WIND       PRES   REMARKS
WAUSEON*       CLOUDY    32  23  69 W18       30.39S WCI  20
DEFIANCE       CLOUDY    30  19  63 W8        30.42F WCI  22
FINDLAY        FLURRIES  29  21  72 W14       30.41F WCI  18
TOLEDO EXPRESS CLOUDY    29  23  78 W13       30.39F WCI  19
TOLEDO METCALF PTSUNNY   31  24  75 W15       30.40F WCI  20
LIMA           FLURRIES  25  22  88 W13       30.42F WCI  14

$$
AND FOR LAKE MICHIGAN COASTAL AND OPEN LAKE BUOY OBSERVATIONS

STATION/POSITION TEMP    WIND        PRES    VSBY  WAVE
                 AIR SEA DIR/SP/G                  HT/PER
                 (F)     (DEG/KT/KT) (MB)    (MI)  (FT/S)
CALUMET HARBOR    26     250/  5/ 10 1032.0S
BURNS HARBOR      27     280/ 12/ 16 1032.8S
SAINT JOSEPH      29     290/ 16/ 18 1031.5

$$
&&




USA.gov is the U.S. government's official web portal to all federal, state and local government web resources and services.